This is the latest recevied weather packets stored in our database for station/object OE7AOT-10. If no packets are shown the sender has not sent any weather packets the latest 10 day(s).
| Time | Temp. | Humidity | Pressure | Rain* | Wind** | Luminosity | Snow |
|---|---|---|---|---|---|---|---|
| 1777975550 | 23.89° C | 27% | 1017.5 hPa | - | - | - | - |
| 1777974650 | 23.33° C | 27% | 1017.6 hPa | - | - | - | - |
| 1777973750 | 23.33° C | 27% | 1017.7 hPa | - | - | - | - |
| 1777972849 | 23.89° C | 27% | 1017.9 hPa | - | - | - | - |
| 1777971949 | 23.33° C | 27% | 1018.1 hPa | - | - | - | - |
| 1777971049 | 23.89° C | 28% | 1018.1 hPa | - | - | - | - |
| 1777970149 | 23.89° C | 33% | 1018.3 hPa | - | - | - | - |
| 1777969249 | 23.89° C | 33% | 1018.4 hPa | - | - | - | - |
| 1777968349 | 23.33° C | 33% | 1018.6 hPa | - | - | - | - |
| 1777967448 | 23.33° C | 33% | 1018.8 hPa | - | - | - | - |
| 1777966548 | 23.33° C | 30% | 1018.8 hPa | - | - | - | - |
| 1777965648 | 23.33° C | 36% | 1018.9 hPa | - | - | - | - |
| 1777964747 | 22.78° C | 35% | 1019 hPa | - | - | - | - |
| 1777963847 | 23.33° C | 35% | 1019.1 hPa | - | - | - | - |
| 1777962946 | 23.89° C | 33% | 1019.2 hPa | - | - | - | - |
| 1777962046 | 23.33° C | 31% | 1019.3 hPa | - | - | - | - |
| 1777961146 | 23.33° C | 30% | 1019.6 hPa | - | - | - | - |
| 1777960246 | 23.89° C | 30% | 1019.5 hPa | - | - | - | - |
| 1777959346 | 23.33° C | 30% | 1019.5 hPa | - | - | - | - |
| 1777958446 | 23.33° C | 30% | 1019.6 hPa | - | - | - | - |
| 1777957546 | 23.33° C | 29% | 1019.8 hPa | - | - | - | - |
| 1777956646 | 23.89° C | 30% | 1019.8 hPa | - | - | - | - |
| 1777955745 | 23.89° C | 29% | 1019.6 hPa | - | - | - | - |
| 1777954845 | 23.33° C | 30% | 1019.8 hPa | - | - | - | - |
| 1777953945 | 23.33° C | 30% | 1019.7 hPa | - | - | - | - |
* Rain since midnight (hover to see other rain measurements)
** Current wind speed in m/s (hover to see current wind gust speed)